Regional Weather Roundup
Issued by NWS

Home | Current Version | Previous Version | Text Only | Print | Product List | Glossary On
Versions: 1 2 3 4 5 6 7 8 9 10 11 12 13 14 15 16 17 18 19 20 21 22 23 24 25 26 27 28 29 30 31 32 33 34 35 36 37 38 39 40 41 42 43 44 45 46 47 48 49 50
000
ASUS44 KBMX 071410
RWRAL

ALABAMA REGIONAL WEATHER ROUNDUP
NATIONAL WEATHER SERVICE BIRMINGHAM AL
900 AM CDT TUE JUL 07 2015

NOTE: "FAIR" INDICATES FEW OR NO CLOUDS BELOW 12,000 FEET
WITH NO SIGNIFICANT WEATHER AND/OR OBSTRUCTIONS TO VISIBILITY.

THE REMARK "TC" DENOTES TEMPERATURE IN DEGREES CELSIUS.

ALZ001>011-014-016>018-020-071500-
NORTH ALABAMA

CITY           SKY/WX    TMP DP  RH WIND       PRES   REMARKS
MUSCLE SHOALS  MOSUNNY   83  73  72 SW10      30.13R
HUNTSVILLE     MOSUNNY   82  73  74 SW9       30.14S
DECATUR        SUNNY     81  73  76 SW10      30.14S
HALEYVILLE     FAIR      79  76  90 SW5       30.18R
GADSDEN        SUNNY     88  70  55 S5        30.16R HX  92
$$

ALZ012-013-022-023-030>036-040>044-071500-
WEST CENTRAL ALABAMA

CITY           SKY/WX    TMP DP  RH WIND       PRES   REMARKS
TUSCALOOSA     CLOUDY    80  75  84 SW10      30.15S
$$

ALZ015-024>027-033>036-040>044-071500-
CENTRAL ALABAMA

CITY           SKY/WX    TMP DP  RH WIND       PRES   REMARKS
BIRMINGHAM     MOSUNNY   81  74  79 W9        30.18S
MONTGOMERY     SUNNY     81  74  79 W7        30.18R
SHELBY CO ARPT PTSUNNY   78  74  87 SW5       30.18R
MAXWELL AFB    MOSUNNY   81  75  82 SW6       30.17R
GREENVILLE     FAIR      83  75  77 VRB6      30.18R HX  90
$$

ALZ019-021-028-029-037-038-045>048-071500-
EAST CENTRAL ALABAMA

CITY           SKY/WX    TMP DP  RH WIND       PRES   REMARKS
ANNISTON       SUNNY     80  72  76 SW8       30.18R
ALEXANDER CITY SUNNY     78  71  79 W3        30.19S
AUBURN         MOSUNNY   81  70  69 SW7       30.21R
$$

ALZ051>064-071500-
SOUTHWEST ALABAMA

CITY           SKY/WX    TMP DP  RH WIND       PRES   REMARKS
MOBILE         MOSUNNY   84  77  79 SW7       30.17S HX  94
BROOKLEY FIELD SUNNY     85  77  77 VRB3      30.17S HX  95
EVERGREEN      PTSUNNY   81  77  88 VRB3      30.18S
$$

ALZ049-050-065>069-071500-
SOUTHEAST ALABAMA

CITY           SKY/WX    TMP DP  RH WIND       PRES   REMARKS
DOTHAN         SUNNY     82  73  74 N6        30.23R
OZARK          SUNNY     81  74  78 VRB3      30.19R
TROY           SUNNY     81  74  79 CALM      30.19S
EUFAULA        FAIR      85  73  67 CALM      30.18R HX  91
$$


USA.gov is the U.S. government's official web portal to all federal, state and local government web resources and services.